Home > Time Zones > World Clock > Weather > Norway > Oslo > Past weeks

Flag for Norway Weather past 2 weeks in Oslo, Norway

Now
33 °F

Chilly.


Feels Like: 33 °F
Forecast: 35 / 50 °F
Wind: 1 mph from Southeast

Location: Oslo-Blindern

Current Time: Apr 28, 2015 at 7:59:46 AM

Latest Report: Apr 28, 2015 at 7:00 AM


Visibility: N/A

Pressure: 29.73 "Hg

Humidity: 87%

Dew point: 30 °F

Location of OsloLocation

Historic Weather in Oslo — Graph

°F

Oslo temperature yesterday

Maximum temperature yesterday: 52 °F (at 3:00 PM)
Minimum temperature yesterday: 32 °F (at 6:00 AM)
Average temperature yesterday: 42 °F

Past Weeks' High & Low Weather Summary

 TemperatureHumidityPressure
High72 °F (Apr 20, 3:00 PM)96% (Apr 14, 11:00 AM)30.35 "Hg (Apr 14, 11:00 AM)
Low31 °F (Apr 28, 5:00 AM)19% (Apr 20, 8:00 PM)29.35 "Hg (Apr 25, 8:00 PM)
Average47 °F54%29.88 "Hg
* Reported Apr 13 6:00 AM — Apr 28 6:00 AM, Oslo, Weather by CustomWeather, © 2015

Note: Actual official high and low records may vary slightly from our data, if they occured in-between our weather recording intervals... More about our weather records

Advertising

Oslo weather history for previous 24 hours

 ConditionsComfort  
Time TempWeatherWind HumidityBarometerVisibility
6:00 AM
Tue, Apr 28
31 °FChilly.1 mph91%29.72 "HgN/A
5:00 AM31 °FClear.2 mph91%29.70 "Hg40 mi
4:00 AM32 °FChilly.2 mph90%29.70 "HgN/A
3:00 AM32 °FChilly.2 mph88%29.68 "HgN/A
2:00 AM33 °FClear.2 mph88%29.67 "Hg43 mi
1:00 AM35 °FChilly.3 mph86%29.66 "HgN/A
12:00 AM37 °FChilly.2 mph83%29.65 "HgN/A
10:00 PM
Mon, Apr 27
42 °FQuite cool.3 mph75%29.63 "HgN/A
9:00 PM43 °FQuite cool.3 mph68%29.63 "HgN/A
8:00 PM44 °FScattered clouds.5 mph61%29.61 "Hg40 mi
7:00 PM45 °FCool.6 mph58%29.59 "HgN/A
6:00 PM48 °FCool.7 mph44%29.59 "HgN/A
5:00 PM50 °FPartly sunny.5 mph45%29.59 "Hg43 mi
4:00 PM51 °FCool.6 mph37%29.59 "HgN/A
3:00 PM52 °FCool.5 mph33%29.59 "HgN/A
2:00 PM51 °FScattered clouds.5 mph42%29.60 "Hg47 mi
1:00 PM52 °FCool.2 mph46%29.60 "HgN/A
12:00 PM49 °FCool.2 mph50%29.61 "HgN/A
11:00 AM48 °FPassing clouds.3 mph56%29.62 "Hg47 mi
10:00 AM46 °FCool.1 mph50%29.62 "HgN/A
9:00 AM43 °FQuite cool.1 mph52%29.62 "HgN/A
8:00 AM40 °FPassing clouds.1 mph59%29.62 "Hg47 mi
7:00 AM33 °FChilly.1 mph74%29.63 "HgN/A
Weather by CustomWeather, © 2015

See weather overviewHow to use our weather pages